Location: ??????
(38.0131°N, 23.7723°E)
Time: 05:02:01
(UTC+00:00)

Cosmos 839 Rocket - Pass Details

Date: 17 October 2021
Orbit: 964 x 2089 km, 65.9° (Epoch: 28 November)

Event Time Altitude Azimuth Distance (km) Brightness Sun altitude
Rises 17:53:17 0° 333° (NNW) 4,376 7.9 -26.1°
Reaches altitude 10° 17:56:29 10° 338° (NNW) 3,241 7.1 -26.7°
Enters shadow 18:03:17 50° 40° (NE) 1,367 4.5 -28.0°
